Vorticity
8 9 11 11 -5 3 14 -5 -2 14 9 7 0 -13 7 9 17 -8 17 15 4 6 -8 13 3 3 4 4 1 4 4 5 5 5 2 8 10 9 7 3 4 6 3 3 3 8 9 9 9
7 10 9 9 2 -2 21 4 13 9 6 11 15 15 5 8 5 -4 10 11 13 7 16 -1 2 3 3 5 2 5 6 5 5 7 6 8 8 9 6 3 5 4 3 3 3 6 10 9 8
12 8 -10 9 12 3 14 7 12 -0 8 8 6 -1 6 6 17 -9 7 9 12 16 5 5 4 5 6 -2 4 4 3 4 5 7 7 9 9 10 7 4 7 3 3 3 3 5 9 9 7
9 6 5 -2 4 -3 1 13 5 10 9 8 0 11 10 5 7 11 1 -0 1 7 5 10 12 7 7 5 2 2 3 3 4 4 6 3 7 6 2 4 3 4 4 3 3 4 7 8 7
8 3 1 12 7 5 8 3 6 7 8 13 8 12 3 15 8 11 16 -6 -5 3 5 3 3 3 1 0 3 2 -2 0 3 5 5 4 5 4 7 2 -2 4 4 3 3 4 5 7 7
2 -8 11 2 8 4 3 8 7 1 5 7 13 2 1 1 8 15 4 10 -3 -1 -0 -4 -1 2 2 7 -1 6 9 5 5 2 5 4 3 3 6 6 1 4 4 4 3 3 4 6 7
-6 -5 6 19 7 6 6 5 4 4 2 4 -2 -0 5 11 7 5 11 14 -3 9 -3 -0 2 2 2 2 2 1 7 12 9 10 6 7 5 4 5 6 2 3 4 4 3 3 4 5 7
-8 -13 12 9 8 8 8 5 5 6 7 -1 5 14 8 14 7 8 5 6 14 9 9 8 5 0 3 8 5 6 1 -2 -0 -0 3 7 7 5 4 7 2 4 3 3 3 3 3 4 5
7 -10 10 -2 9 10 6 7 7 5 6 6 6 6 -9 1 7 6 5 6 6 9 8 0 3 7 12 7 5 4 5 3 2 2 1 2 4 7 8 5 3 3 1 2 4 4 3 4 4
3 -3 9 -2 -4 -0 5 6 4 5 5 5 5 8 9 8 6 7 7 8 7 5 8 8 4 5 5 4 8 6 5 1 5 -0 -0 3 1 3 6 7 5 5 4 4 3 4 4 4 4
7 -4 13 -0 5 5 5 4 4 4 6 4 4 4 4 4 7 9 10 8 8 8 6 6 5 4 2 2 4 4 5 6 3 3 9 6 3 1 5 5 8 4 2 7 4 4 5 4 4
4 5 3 4 3 3 3 3 4 5 5 5 5 6 6 6 5 5 6 10 10 7 9 5 6 4 6 7 1 2 9 4 4 6 2 1 3 4 7 5 4 7 9 8 10 3 5 5 5
5 3 4 5 6 6 6 5 5 6 4 4 5 5 6 6 7 8 8 8 9 10 11 7 7 5 4 2 4 5 3 6 2 8 11 8 9 10 10 3 5 6 9 10 6 12 3 3 6
3 12 7 7 6 6 6 4 5 5 7 7 7 7 7 6 5 6 8 9 11 12 10 12 8 7 5 3 4 3 3 0 4 7 5 6 8 10 7 12 9 10 5 4 4 4 7 9 3
5 5 4 5 6 6 7 10 13 15 15 12 11 8 7 6 5 5 5 7 8 9 12 14 11 10 7 6 4 3 4 5 7 8 4 4 1 9 4 8 10 9 4 9 5 2 -0 8 5
14 11 10 13 12 8 11 -4 6 6 7 6 8 6 5 5 5 5 5 6 7 9 8 11 14 11 11 9 5 6 2 6 6 3 6 5 7 5 -1 11 5 10 8 6 6 5 10 8 1
15 3 13 5 5 6 6 -1 -3 5 6 7 7 7 7 7 7 7 6 7 8 8 7 9 11 12 14 12 10 5 5 0 5 4 6 6 2 2 6 7 8 7 8 3 4 10 6 6 4
23 11 9 4 8 8 3 3 8 10 10 9 10 10 10 12 12 9 11 11 10 12 12 9 10 12 10 18 13 11 6 5 5 6 6 6 6 6 4 9 5 4 5 11 9 7 7 2 4
-4 0 6 4 6 6 14 6 8 9 10 14 12 9 11 8 10 14 12 14 14 13 16 16 11 11 13 10 13 17 12 7 4 6 6 9 7 4 9 3 3 4 -0 6 -2 -1 4 4 7
8 4 12 25 19 8 11 3 28 21 23 22 10 9 10 11 8 8 15 9 11 12 13 14 7 9 11 13 11 12 18 11 7 6 7 7 3 9 -1 -2 4 2 -4 -7 -3 0 2 5 3
13 8 7 4 3 30 10 47 4 6 30 12 0 6 3 5 10 14 18 18 18 12 12 13 11 14 13 14 14 12 16 16 7 6 7 3 1 10 -3 -3 8 -5 -2 3 2 6 10 6 11
12 1 6 6 11 10 -29 1 0 4 -3 3 6 12 21 3 12 11 12 15 25 25 12 15 13 15 16 14 14 14 13 17 11 8 7 8 8 7 -3 0 4 2 4 0 9 7 10 12 10
-0 4 5 9 8 14 21 7 16 -4 0 -3 8 10 5 16 -1 -3 6 11 20 31 18 17 9 12 12 14 10 15 14 15 19 5 12 8 7 2 2 5 3 10 2 8 8 16 20 19 14
5 12 23 18 15 16 26 -1 13 4 -4 3 11 22 20 13 20 35 33 16 7 18 20 12 11 9 12 17 17 10 14 17 18 5 9 18 6 6 8 5 11 -4 8 7 19 15 13 14 17
15 12 12 13 7 -2 9 13 -14 -5 3 8 18 12 13 20 19 34 47 36 19 5 12 8 7 6 14 19 16 17 16 15 20 15 9 9 13 12 13 9 2 6 9 12 12 18 18 11 2
7 7 5 14 7 -21 21 13 1 -9 15 24 37 24 13 2 23 17 16 18 17 46 15 13 9 12 7 11 17 16 18 17 21 11 10 10 9 7 3 7 5 1 15 13 11 6 -7 10 17
5 10 2 -1 33 18 9 8 10 6 30 10 10 17 18 12 19 13 21 19 29 8 10 1 7 4 8 15 16 18 19 20 19 4 4 10 7 4 9 9 5 1 6 8 7 10 12 10 19
16 3 12 14 10 12 19 8 -17 25 4 4 -1 1 9 7 15 30 20 2 20 14 22 25 22 21 20 14 16 15 23 22 18 7 9 7 7 10 10 4 7 7 20 23 17 18 13 -1 8
9 9 12 2 6 2 7 15 13 10 4 3 9 2 -5 13 -0 22 26 35 5 -2 33 10 12 9 10 10 12 12 4 15 2 12 11 12 8 7 3 9 22 32 24 19 16 16 13 21 15
4 3 8 -1 15 3 2 13 17 8 1 -5 -9 -9 -1 2 -1 7 29 17 16 24 5 75 47 3 -3 0 11 5 17 6 15 46 -6 5 21 22 18 61 30 13 0 5 30 6 6 24 31
Height
3116 3119 3123 3127 3137 3132 3131 3134 3133 3133 3135 3138 3137 3141 3144 3146 3149 3151 3145 3146 3149 3150 3152 3153 3154 3155 3157 3158 3159 3159 3159 3159 3159 3160 3160 3160 3160 3160 3161 3162 3163 3163 3163 3162 3161 3161 3159 3159 3159
3114 3118 3122 3127 3130 3130 3128 3130 3130 3133 3132 3132 3135 3138 3143 3145 3140 3142 3143 3145 3147 3148 3151 3153 3153 3154 3156 3157 3158 3159 3159 3159 3160 3160 3160 3160 3161 3161 3161 3162 3163 3163 3163 3163 3162 3162 3161 3160 3161
3113 3116 3124 3125 3126 3127 3126 3127 3130 3127 3129 3131 3135 3136 3139 3139 3139 3141 3144 3144 3146 3147 3149 3151 3153 3154 3155 3156 3157 3157 3158 3159 3159 3159 3160 3159 3160 3160 3162 3162 3163 3163 3163 3163 3163 3162 3162 3162 3161
3113 3117 3120 3122 3123 3124 3124 3125 3126 3126 3128 3130 3132 3136 3135 3135 3137 3139 3143 3144 3145 3147 3147 3149 3151 3152 3153 3155 3156 3156 3157 3157 3158 3158 3159 3159 3159 3160 3161 3162 3163 3163 3163 3163 3163 3163 3163 3163 3162
3112 3116 3121 3120 3123 3122 3121 3123 3125 3128 3128 3130 3131 3133 3133 3134 3135 3137 3140 3142 3143 3145 3146 3148 3149 3150 3152 3153 3154 3155 3156 3156 3157 3157 3158 3159 3159 3160 3161 3162 3162 3163 3163 3163 3163 3164 3164 3163 3164
3111 3114 3119 3119 3121 3121 3121 3121 3124 3126 3128 3129 3131 3131 3132 3133 3134 3135 3137 3139 3141 3143 3144 3146 3147 3149 3151 3151 3152 3153 3155 3155 3155 3156 3157 3157 3158 3159 3160 3160 3161 3162 3162 3163 3163 3163 3164 3164 3163
3110 3114 3117 3118 3120 3119 3120 3119 3122 3125 3127 3128 3127 3130 3130 3130 3131 3133 3134 3136 3138 3141 3142 3143 3145 3146 3147 3149 3150 3151 3151 3153 3154 3154 3154 3155 3156 3157 3158 3159 3160 3161 3161 3162 3162 3163 3163 3163 3163
3107 3111 3114 3116 3118 3119 3116 3117 3119 3121 3124 3122 3126 3129 3130 3125 3129 3130 3132 3133 3135 3137 3139 3141 3142 3143 3145 3145 3147 3149 3150 3151 3151 3152 3153 3154 3155 3155 3157 3157 3158 3159 3160 3160 3161 3161 3162 3162 3162
3106 3111 3113 3115 3115 3115 3115 3116 3117 3119 3120 3122 3123 3123 3122 3124 3125 3126 3128 3129 3131 3133 3135 3137 3139 3140 3141 3142 3144 3145 3146 3148 3149 3150 3151 3152 3153 3154 3154 3155 3156 3157 3158 3158 3159 3159 3160 3161 3161
3104 3109 3113 3111 3110 3112 3113 3114 3115 3117 3117 3120 3119 3119 3119 3121 3121 3122 3124 3125 3127 3129 3131 3133 3135 3137 3138 3139 3141 3142 3143 3144 3145 3147 3148 3149 3149 3151 3151 3152 3153 3154 3155 3156 3157 3158 3158 3159 3160
3102 3107 3107 3109 3108 3109 3111 3111 3113 3112 3116 3115 3114 3116 3115 3116 3117 3118 3119 3121 3122 3124 3126 3128 3130 3132 3133 3135 3137 3138 3140 3141 3142 3143 3144 3146 3147 3147 3148 3149 3151 3151 3153 3155 3156 3156 3156 3157 3157
3103 3104 3106 3106 3107 3107 3107 3108 3108 3109 3114 3110 3111 3111 3112 3112 3112 3113 3114 3115 3117 3118 3121 3123 3125 3127 3129 3131 3132 3134 3135 3137 3138 3140 3141 3142 3144 3144 3145 3146 3148 3149 3150 3151 3152 3153 3154 3155 3155
3100 3102 3104 3104 3105 3105 3105 3106 3103 3107 3107 3107 3107 3107 3107 3107 3108 3107 3108 3110 3111 3111 3114 3116 3118 3121 3122 3124 3127 3128 3130 3132 3133 3135 3136 3138 3139 3140 3141 3143 3144 3145 3146 3147 3149 3150 3151 3152 3153
3099 3100 3102 3103 3104 3103 3103 3103 3099 3106 3103 3104 3102 3103 3102 3102 3102 3102 3103 3103 3104 3105 3107 3108 3110 3113 3115 3117 3120 3122 3124 3126 3128 3130 3132 3133 3135 3136 3137 3138 3140 3142 3143 3144 3145 3146 3147 3148 3149
3097 3100 3100 3100 3101 3101 3100 3100 3097 3101 3100 3099 3098 3098 3098 3097 3097 3096 3096 3096 3097 3098 3099 3101 3101 3104 3107 3109 3112 3115 3117 3119 3121 3124 3126 3128 3130 3132 3133 3134 3135 3137 3139 3140 3141 3142 3142 3144 3145
3097 3098 3099 3097 3098 3097 3098 3096 3096 3096 3096 3095 3093 3093 3091 3090 3090 3090 3089 3088 3089 3089 3091 3092 3093 3094 3097 3100 3104 3106 3110 3112 3114 3117 3120 3123 3125 3127 3129 3130 3131 3132 3134 3136 3137 3138 3139 3140 3140
3095 3097 3096 3097 3095 3093 3095 3091 3093 3093 3091 3088 3088 3087 3085 3083 3082 3081 3080 3079 3079 3080 3082 3083 3084 3085 3088 3090 3093 3097 3101 3105 3107 3109 3113 3117 3119 3121 3123 3125 3126 3127 3128 3130 3132 3133 3134 3135 3135
3093 3095 3095 3095 3093 3090 3088 3085 3086 3087 3085 3082 3081 3079 3077 3074 3071 3070 3070 3069 3070 3070 3071 3073 3075 3077 3078 3080 3083 3086 3091 3095 3099 3102 3106 3110 3113 3115 3116 3119 3120 3122 3124 3126 3127 3128 3129 3130 3129
3091 3092 3093 3093 3091 3087 3084 3080 3080 3080 3079 3076 3074 3071 3069 3066 3063 3061 3060 3059 3059 3059 3060 3063 3065 3066 3068 3069 3072 3075 3080 3086 3090 3094 3099 3103 3106 3108 3110 3112 3115 3116 3118 3120 3121 3122 3122 3123 3124
3088 3089 3091 3090 3086 3084 3080 3075 3075 3073 3072 3070 3067 3064 3062 3060 3057 3054 3051 3050 3048 3049 3049 3051 3054 3056 3057 3059 3062 3065 3069 3075 3081 3086 3091 3095 3099 3102 3104 3106 3109 3110 3112 3114 3115 3116 3116 3115 3117
3088 3088 3089 3089 3083 3082 3078 3073 3071 3070 3067 3064 3062 3059 3055 3052 3048 3045 3043 3041 3040 3039 3041 3042 3044 3046 3047 3050 3053 3055 3059 3065 3070 3075 3080 3086 3091 3094 3096 3099 3102 3104 3105 3106 3108 3108 3107 3106 3107
3088 3085 3085 3084 3082 3082 3079 3074 3068 3066 3064 3060 3058 3054 3049 3046 3042 3038 3034 3031 3028 3027 3030 3034 3036 3037 3039 3041 3043 3045 3049 3053 3060 3067 3072 3078 3082 3085 3088 3092 3094 3097 3097 3097 3098 3099 3098 3097 3096
3086 3083 3082 3080 3080 3079 3079 3078 3063 3060 3059 3056 3052 3047 3043 3039 3034 3029 3026 3022 3020 3018 3019 3024 3028 3030 3032 3034 3036 3038 3041 3045 3053 3059 3064 3068 3073 3078 3081 3084 3086 3088 3089 3089 3088 3087 3088 3087 3088
3083 3082 3081 3079 3079 3077 3072 3073 3060 3058 3054 3051 3047 3041 3036 3033 3027 3020 3013 3011 3012 3012 3014 3016 3020 3023 3025 3027 3029 3031 3033 3037 3043 3051 3055 3060 3066 3070 3074 3076 3079 3080 3080 3080 3079 3077 3078 3080 3080
3082 3083 3081 3080 3077 3073 3071 3071 3060 3056 3052 3047 3041 3035 3031 3026 3018 3009 3002 2999 3000 3004 3008 3011 3014 3017 3018 3020 3021 3023 3026 3030 3036 3044 3049 3055 3058 3062 3067 3069 3071 3072 3072 3072 3071 3071 3071 3073 3073
3082 3084 3083 3081 3073 3071 3070 3065 3059 3054 3050 3044 3039 3035 3031 3025 3014 3008 3003 2999 2996 2999 3005 3007 3010 3012 3012 3013 3015 3017 3021 3024 3029 3037 3042 3047 3051 3055 3060 3061 3063 3064 3064 3064 3064 3065 3065 3065 3066
3080 3082 3083 3083 3078 3076 3065 3061 3057 3053 3049 3045 3041 3036 3030 3024 3016 3010 3006 3002 3000 3001 3003 3005 3006 3007 3008 3010 3010 3012 3015 3019 3024 3031 3036 3040 3045 3048 3051 3054 3055 3057 3057 3057 3057 3057 3058 3059 3058
3080 3082 3083 3082 3078 3068 3059 3059 3055 3051 3049 3046 3041 3037 3032 3026 3019 3011 3007 3004 3002 3001 3001 3003 3003 3004 3005 3006 3008 3009 3013 3016 3021 3025 3030 3033 3037 3041 3045 3046 3047 3048 3048 3049 3049 3050 3051 3052 3052
3080 3081 3082 3081 3079 3073 3062 3054 3052 3050 3049 3046 3041 3037 3032 3027 3021 3014 3008 3004 3003 3002 3000 3000 3001 3002 3003 3004 3006 3008 3010 3013 3017 3019 3023 3027 3031 3033 3036 3038 3038 3038 3041 3041 3042 3043 3044 3046 3046
3080 3080 3080 3079 3076 3074 3071 3058 3051 3050 3049 3046 3043 3038 3034 3029 3024 3019 3013 3008 3005 3003 3001 2998 2999 3000 3002 3003 3004 3006 3009 3010 3010 3012 3016 3020 3023 3025 3027 3028 3031 3032 3033 3036 3037 3038 3039 3040 3041